Jaipur, India

4:16 AM IST on January 24, 2018 (GMT +0530)
Jaipur

Weather History for VIJP - November, 2013

Change the Weather History Date:

Monday, November 4, 2013

  Actual Average Record
Temperature  
Mean Temperature 72 °F -  
Max Temperature 88 °F - - ()
Min Temperature 57 °F - - ()
Cooling Degree Days 8    
Growing Degree Days 22 (Base 50)    
Moisture  
Dew Point 42 °F    
Average Humidity 35    
Maximum Humidity 55    
Minimum Humidity 13    
Precipitation  
Precipitation 0.00 in - - ()
Sea Level Pressure  
Sea Level Pressure 30.08 in    
Wind  
Wind Speed 1 mph ()    
Max Wind Speed 6 mph    
Max Gust Speed -    
Visibility 1.4 miles    
Events      
T = Trace of Precipitation, MM = Missing Value Source: Averaged Metar Reports

Daily Weather History Graph

Daily Weather History Graph

Search for Another Location

Airport or City:

Trip Planner

Search our weather history database for the weather conditions in past years. The results will help you decide how hot, cold, wet, or windy it might be!

Date:

Astronomy

Nov. 04, 2013 Rise Set
Actual Time 6:38 AM IST 5:41 PM IST
Civil Twilight 6:14 AM IST 6:06 PM IST
Nautical Twilight 5:46 AM IST 6:33 PM IST
Astronomical Twilight 5:19 AM IST 7:00 PM IST
Moon 7:14 AM IST (11/4) 6:27 PM IST (11/4)
Length of Visible Light 11h 51m
Length of Day
11h 03m
New Moon, 1% of the Moon is Illuminated
Nov 4
New Moon
Nov 10
First Quarter
Nov 17
Full
Nov 26
Last Quarter
Dec 3
New

Hourly Weather History & Observations

Time (IST) Temp. Dew Point Humidity Pressure Visibility Wind Dir Wind Speed Gust Speed Precip Events Conditions
12:00 AM 68.0 °F 41.0 °F 37% 30.06 in 0.9 mi Variable 2.3 mph - N/A   Smoke
1:00 AM 64.4 °F 41.0 °F 42% 30.06 in 0.9 mi Calm Calm - N/A   Smoke
2:00 AM 64.4 °F 42.8 °F 45% 30.06 in 0.9 mi Calm Calm - N/A   Smoke
2:30 AM 63 °F 45 °F 41% 30.03 in 1 mi Calm Calm - -   Smoke
3:00 AM 66.2 °F 42.8 °F 43% 30.06 in 1.2 mi Variable 1.2 mph - N/A   Smoke
4:00 AM 62.6 °F 44.6 °F 52% 30.06 in 1.2 mi Calm Calm - N/A   Smoke
5:00 AM 60.8 °F 44.6 °F 55% 30.06 in 1.2 mi Calm Calm - N/A   Smoke
5:30 AM 60 °F 46 °F 49% 30.04 in 1 mi Calm Calm - -   Smoke
5:30 AM 60.8 °F 44.6 °F 55% 30.06 in 1.6 mi Calm Calm - N/A   Smoke
6:00 AM 60.8 °F 44.6 °F 55% 30.09 in 1.6 mi Calm Calm - N/A   Smoke
7:00 AM 60.8 °F 42.8 °F 52% 30.09 in 1.2 mi Calm Calm - N/A   Smoke
8:00 AM 66.2 °F 44.6 °F 46% 30.12 in 1.2 mi Calm Calm - N/A   Smoke
8:30 AM 72 °F 48 °F 31% 30.10 in 1 mi Calm Calm - -   Smoke
8:30 AM 71.6 °F 48.2 °F 43% 30.15 in 1.2 mi Calm Calm - N/A   Smoke
9:00 AM 73.4 °F 42.8 °F 33% 30.15 in 1.6 mi ENE 4.6 mph - N/A   Smoke
9:30 AM 75.2 °F 42.8 °F 31% 30.18 in 1.6 mi East 5.8 mph - N/A   Smoke
10:00 AM 78.8 °F 39.2 °F 24% 30.18 in 1.6 mi ESE 4.6 mph - N/A   Haze
11:00 AM 78.8 °F 39.2 °F 24% 30.15 in 1.9 mi Variable 3.5 mph - N/A   Haze
11:30 AM 83 °F 42 °F 14% 30.09 in 1 mi 2.3 mph - -   Haze
12:00 PM 82.4 °F 39.2 °F 21% 30.15 in 1.9 mi SSE 4.6 mph - N/A   Haze
12:30 PM 82.4 °F 37.4 °F 20% 30.12 in 1.9 mi Variable 2.3 mph - N/A   Haze
1:00 PM 84.2 °F 37.4 °F 19% 30.09 in 1.9 mi WSW 4.6 mph - N/A   Haze
2:00 PM 84.2 °F 35.6 °F 18% 30.06 in 1.9 mi Variable 4.6 mph - N/A   Haze
3:00 PM 84.2 °F 35.6 °F 18% 30.06 in 1.9 mi Variable 2.3 mph - N/A   Haze
4:00 PM 84.2 °F 35.6 °F 18% 30.04 in 1.9 mi Variable 2.3 mph - N/A   Haze
5:00 PM 82.4 °F 37.4 °F 20% 30.06 in 1.9 mi Calm Calm - N/A   Haze
5:30 PM 81 °F 39 °F 13% 29.99 in 1 mi Calm Calm - -   Haze
7:00 PM 73.4 °F 46.4 °F 38% 30.06 in 1.2 mi Calm Calm - N/A   Haze
8:00 PM 69.8 °F 46.4 °F 43% 30.06 in 1.2 mi Variable 1.2 mph - N/A   Haze
8:30 PM 69 °F 45 °F 30% 30.05 in 1 mi Calm Calm - -   Smoke
9:00 PM 69.8 °F 44.6 °F 40% 30.09 in 1.2 mi Variable 1.2 mph - N/A   Smoke
10:00 PM 68.0 °F 41.0 °F 37% 30.09 in 1.2 mi Variable 1.2 mph - N/A   Smoke
11:00 PM 68.0 °F 42.8 °F 40% 30.09 in 1.2 mi Calm Calm - N/A   Smoke
11:30 PM 67 °F 47 °F 37% 30.07 in 1 mi Calm Calm - -   Smoke